RH
99 100 100 99 97 94 98 99 100 100 100 98 100 96 93 94 98 95 94 92 87 85 87 94 90 88 78 89 84 55 54 52 60 76 78 78 83 82 91 85 88 88 73 68 82 82 81
92 95 98 100 100 99 88 95 98 100 100 98 98 98 93 95 94 95 94 90 88 87 90 96 96 92 87 92 52 54 53 57 60 73 75 81 79 82 81 89 83 74 75 68 83 86 86
86 83 87 93 98 99 100 84 90 90 100 99 100 98 95 95 94 96 94 84 90 93 81 94 94 94 88 81 52 54 57 64 67 73 78 80 88 94 82 85 82 72 80 72 79 86 85
82 86 81 80 90 94 92 92 81 85 100 100 99 97 96 93 96 94 96 92 87 88 89 92 96 84 91 60 65 67 66 66 76 79 78 75 88 93 94 87 93 78 84 95 92 81 86
81 75 78 82 82 85 90 91 91 87 91 90 100 99 96 92 96 96 92 93 91 91 92 94 92 89 82 63 68 67 69 73 71 81 77 82 82 87 93 92 96 80 98 99 95 80 83
74 74 83 89 86 85 84 91 94 91 97 80 100 99 96 94 93 96 92 94 74 96 90 92 87 93 79 75 74 79 78 74 73 78 84 91 90 89 89 93 91 96 98 100 93 94 86
70 77 82 88 87 88 84 88 95 95 99 85 98 99 94 93 86 96 89 79 70 80 72 72 67 72 66 73 75 76 71 72 72 82 91 83 93 98 88 92 88 81 72 99 92 84 87
72 72 88 88 84 88 91 86 91 94 87 86 98 100 96 93 87 97 89 84 64 60 63 62 64 66 73 73 66 72 75 77 86 92 86 87 88 74 76 81 93 79 84 96 92 83 84
75 74 80 84 89 90 87 91 89 92 90 92 100 100 99 93 87 94 82 74 66 64 79 68 61 66 73 77 72 77 81 84 91 84 88 86 94 72 77 84 94 71 74 85 82 86 85
81 73 76 74 72 81 82 86 92 92 86 92 100 100 96 87 92 86 82 68 61 62 88 67 71 66 79 80 79 76 81 86 84 79 80 94 85 84 87 87 88 88 66 69 82 90 100
73 79 76 78 78 76 81 87 90 92 73 76 94 100 96 83 90 84 63 64 59 60 87 48 68 59 68 73 66 82 90 91 88 89 83 97 90 92 98 92 71 76 68 78 84 97 98
65 68 70 71 76 75 82 83 92 91 84 69 99 100 94 95 97 77 65 62 68 85 83 78 68 73 77 75 77 70 86 89 75 83 87 90 82 83 84 76 70 63 78 88 86 92 98
65 61 66 66 71 73 77 80 84 88 81 68 99 99 96 83 84 74 64 72 87 93 61 79 81 73 71 70 68 72 72 83 89 97 99 87 84 77 76 76 70 74 81 98 97 94 95
64 62 64 70 73 70 72 76 79 90 82 93 79 98 92 87 82 72 73 79 93 68 84 58 66 68 70 70 61 66 74 77 77 80 93 98 95 88 77 82 91 82 76 87 90 86 68
65 62 64 64 67 70 72 73 79 94 75 67 100 99 95 90 84 69 77 94 77 77 65 70 66 74 76 72 73 68 72 73 69 74 77 92 97 74 77 73 66 93 86 50 65 62 77
62 61 60 62 62 66 72 74 77 90 88 99 97 99 97 90 77 78 89 83 81 65 56 62 78 69 79 79 75 73 69 67 64 70 65 72 92 79 75 67 67 55 49 66 80 73 62
65 68 69 68 66 69 70 76 80 93 92 97 99 98 90 89 83 93 96 88 71 63 53 61 74 76 72 81 71 68 68 65 61 66 58 67 75 78 68 82 84 66 64 69 68 74 72
59 68 79 87 78 81 79 80 84 91 87 99 98 100 100 92 98 96 96 74 59 65 59 56 61 64 75 76 70 66 71 63 61 56 67 66 82 99 83 67 64 69 64 62 74 68 83
62 69 83 85 82 85 87 86 84 94 91 98 98 97 100 98 99 98 70 70 66 70 67 64 61 59 57 68 67 68 70 66 60 63 62 58 83 93 79 66 62 71 68 64 69 75 80
66 72 82 89 81 86 86 89 93 93 97 100 97 100 100 99 93 82 80 76 80 67 65 59 56 51 59 64 62 68 78 72 64 63 66 60 76 69 86 64 71 78 73 69 70 87 75
71 81 85 87 77 83 86 91 95 94 99 100 97 99 92 99 98 93 74 70 61 82 60 54 54 55 70 83 69 69 74 72 70 64 69 66 83 78 67 66 73 72 70 78 79 69 71
76 82 85 80 86 82 87 93 92 98 99 99 97 98 96 95 79 94 89 81 70 73 64 62 65 58 57 73 68 80 67 70 70 72 70 76 95 72 79 70 67 66 65 70 75 71 68
83 83 83 86 87 87 91 93 99 98 100 94 99 99 93 90 84 88 88 77 68 68 65 58 57 68 65 62 59 64 61 64 67 76 80 75 86 85 86 76 66 71 64 66 72 69 70
86 83 85 84 82 90 91 99 98 97 98 94 100 93 95 93 85 81 78 77 69 64 76 76 62 65 59 53 56 60 68 68 72 73 72 80 80 89 94 77 90 56 45 52 64 61 59
85 84 83 85 88 91 98 96 99 98 97 89 89 84 81 95 84 76 75 73 77 85 86 81 77 75 66 68 91 86 89 76 66 68 70 72 87 97 94 96 70 57 49 48 56 64 72
86 88 85 85 92 88 94 98 100 84 98 83 86 68 74 82 87 81 79 77 84 90 87 87 78 74 65 75 81 92 96 81 87 73 71 83 80 85 95 95 86 55 49 47 48 68 72
90 87 88 87 91 89 92 99 100 92 94 82 78 68 69 88 91 88 84 78 78 84 95 88 81 73 67 85 85 82 87 72 93 92 89 86 90 95 94 96 80 57 51 41 60 53 74
90 88 84 90 92 91 93 100 99 98 84 79 72 63 66 89 89 84 80 70 80 82 88 83 77 75 85 79 79 85 81 82 80 76 82 81 74 81 89 96 85 52 54 53 52 70 70
90 84 87 93 93 78 99 98 95 100 96 78 60 64 62 86 87 79 76 73 74 72 90 89 76 85 85 92 86 88 79 76 80 84 74 80 75 84 81 76 62 63 59 63 63 67 62
Wind_Speed
27 27 26 26 26 25 30 31 33 35 23 18 18 15 15 14 17 14 11 11 12 14 15 10 10 10 7 1 8 8 7 7 7 2 5 5 5 2 9 9 7 14 9 10 5 9 3
28 28 28 29 29 28 27 30 32 32 30 20 19 16 13 16 16 15 12 11 13 12 13 12 9 8 1 6 3 6 8 7 7 3 4 8 5 12 8 12 14 10 4 12 9 13 6
29 29 30 31 30 32 30 29 33 40 31 22 20 16 15 15 15 17 13 11 10 11 11 12 9 5 2 11 5 7 8 5 7 4 3 4 3 6 4 2 5 7 10 3 15 8 6
28 30 30 30 31 31 32 33 30 32 25 26 22 17 15 15 16 14 15 13 9 10 9 11 7 1 5 7 6 4 7 4 7 5 6 9 6 11 4 2 3 9 4 5 11 11 5
28 29 30 31 31 32 32 32 32 28 36 42 27 19 14 15 16 13 14 13 8 8 10 8 2 2 6 4 6 10 9 5 11 8 5 7 7 5 6 4 5 5 6 2 1 1 5
29 30 30 29 30 32 33 33 32 32 30 33 24 17 13 16 15 13 13 14 4 2 3 5 2 3 5 4 3 6 6 8 3 7 2 4 2 4 3 3 5 6 8 4 10 3 6
31 31 30 30 29 30 34 35 34 33 29 30 21 20 13 15 13 13 9 3 3 2 4 6 4 3 4 3 3 2 1 2 4 2 1 2 1 3 1 2 4 3 10 3 10 10 6
31 31 31 30 31 32 30 35 36 36 33 35 20 19 12 12 11 10 5 3 3 2 5 7 5 5 3 1 1 4 5 3 1 1 1 2 2 3 5 6 5 9 15 11 8 7 2
32 33 32 31 32 31 32 32 36 34 36 32 17 15 10 10 9 10 5 4 3 2 0 4 3 3 3 4 3 4 1 3 3 2 3 2 3 3 5 7 5 4 8 7 8 5 3
32 32 33 35 34 34 34 34 33 34 37 32 25 15 11 5 6 7 3 7 4 2 4 3 2 3 3 3 1 4 6 3 1 4 3 4 3 2 6 6 4 3 5 14 12 7 2
32 33 35 35 37 36 36 35 34 34 40 38 30 21 14 12 4 5 5 8 6 3 3 2 2 2 2 1 3 6 4 5 3 4 3 2 1 5 2 8 8 5 10 10 11 7 2
32 31 32 33 34 39 39 39 36 38 40 38 40 22 15 10 15 6 11 9 5 5 5 1 3 2 0 2 2 3 4 4 5 5 5 3 1 3 3 3 1 11 15 10 8 3 1
32 32 33 34 35 36 38 40 41 41 47 37 42 22 20 12 5 17 14 2 5 3 3 3 4 3 2 1 2 1 3 2 2 3 5 5 2 2 3 3 15 8 3 2 3 2 2
31 31 32 34 35 36 38 40 43 42 50 39 49 21 19 16 10 20 11 3 3 3 5 3 4 3 3 2 1 2 1 2 4 4 4 3 3 6 9 3 8 5 1 3 4 2 1
32 33 34 34 35 36 38 42 42 42 52 52 15 20 13 21 19 20 3 3 7 6 6 7 4 3 1 1 1 2 1 1 1 1 4 4 4 3 2 2 2 2 2 1 6 2 3
33 35 35 34 35 37 39 41 40 40 50 10 25 12 9 19 21 11 2 4 4 4 4 6 5 4 4 3 1 2 0 1 2 0 1 3 4 3 4 3 5 2 5 2 3 3 2
34 34 35 35 36 36 39 38 37 33 34 16 1 3 16 23 18 2 3 6 4 5 3 6 6 4 4 5 4 1 3 2 1 2 3 3 3 4 2 5 2 4 3 6 4 3 3
36 37 37 36 37 35 36 36 33 31 28 16 4 2 20 27 5 3 4 6 3 4 2 2 5 3 5 5 4 3 3 1 4 1 3 2 4 3 0 3 0 2 3 3 4 2 2
38 38 37 35 35 36 36 34 33 28 31 15 3 2 16 8 4 4 2 2 3 4 5 4 4 4 4 6 4 2 3 3 3 3 2 2 2 3 6 5 4 3 2 4 5 3 2
37 38 37 35 36 37 37 33 29 32 33 33 4 3 2 3 2 5 5 5 6 4 4 3 3 3 4 4 1 6 3 2 2 3 6 4 3 4 6 4 2 1 2 4 4 3 3
37 38 37 35 35 37 37 32 29 33 28 10 4 4 2 5 8 3 4 5 12 5 2 5 1 3 6 3 2 3 4 3 3 2 3 3 3 2 3 3 3 2 3 4 4 4 4
38 37 36 36 34 35 35 29 33 34 39 13 4 3 2 2 9 7 3 6 11 4 5 3 6 4 4 6 5 6 5 3 2 3 3 3 2 2 2 3 3 1 3 3 3 2 5
38 37 36 36 35 34 32 29 26 36 19 4 5 4 4 3 6 10 5 4 10 8 4 6 6 4 5 4 4 5 4 3 5 6 3 2 4 3 2 3 4 4 4 6 5 4 5
38 38 36 35 36 34 31 26 34 29 14 7 5 3 2 3 5 10 10 5 8 5 6 3 5 5 3 5 6 7 8 8 6 4 3 4 3 2 1 3 2 4 3 3 5 1 3
37 37 37 36 35 32 27 36 33 26 25 15 7 3 1 2 2 4 5 4 9 7 4 4 3 1 5 5 5 4 4 3 3 4 3 2 4 2 3 2 5 2 3 5 5 3 2
36 37 36 36 33 29 29 33 31 10 23 17 13 5 2 3 1 4 3 3 4 4 3 3 3 2 4 3 3 3 4 3 3 2 5 4 6 3 1 3 4 5 3 1 3 4 2
34 35 35 35 32 28 28 30 12 22 31 16 7 9 3 3 3 4 1 3 3 5 4 3 2 3 3 2 3 3 2 4 4 6 3 2 2 2 2 1 6 6 4 2 4 5 4
32 33 35 32 28 29 33 30 10 38 32 17 5 7 3 3 3 4 4 3 3 3 5 4 4 2 3 3 2 2 3 5 3 5 5 5 5 3 3 2 7 3 2 5 4 2 5
32 33 32 26 26 33 28 12 23 38 28 20 4 10 13 5 3 3 11 15 5 2 4 3 3 2 3 4 1 3 2 1 4 3 0 3 6 4 7 5 2 2 3 2 2 4 4
Wind_Direction
349 347 346 346 341 345 346 343 333 278 270 267 268 274 284 288 291 295 297 300 296 300 287 295 295 311 335 251 254 267 300 314 317 276 230 198 191 225 202 226 208 221 206 200 175 350 6
343 344 344 345 343 340 334 333 331 318 273 261 264 266 276 284 292 295 294 301 296 294 285 292 302 305 202 274 270 267 294 296 316 295 262 170 213 223 221 229 200 198 223 186 206 261 46
343 341 341 342 341 340 340 333 336 344 273 266 260 260 267 279 287 294 297 299 294 293 272 284 292 305 234 249 280 282 315 300 305 303 287 235 274 303 299 209 201 206 186 263 217 226 33
345 344 344 338 340 340 342 341 332 341 297 284 261 260 266 276 283 293 295 293 290 285 275 276 291 282 250 283 317 299 319 315 302 299 265 254 220 259 248 246 140 154 99 138 271 161 57
346 341 343 342 340 339 338 339 336 328 332 331 259 254 261 271 283 293 295 291 284 275 273 264 270 192 272 273 271 292 272 286 319 278 259 262 235 209 193 177 114 173 122 131 184 114 100
346 343 344 339 342 342 341 340 335 337 328 321 263 251 255 271 286 289 296 291 264 210 264 205 223 278 250 303 311 308 273 270 298 307 254 230 219 357 24 65 154 158 106 274 108 109 162
344 344 343 343 342 340 340 340 339 335 329 335 289 245 248 265 286 288 298 196 57 41 228 202 173 241 299 340 345 9 45 300 251 260 278 278 30 94 109 145 20 246 169 94 95 76 107
343 341 342 342 345 342 342 339 337 336 331 333 292 237 240 271 282 276 255 247 176 148 296 226 236 263 261 184 11 58 357 274 299 287 27 185 125 154 118 158 260 256 123 117 69 95 68
343 340 341 344 347 343 341 340 336 336 334 331 294 232 237 269 275 259 198 224 155 91 290 295 187 205 211 160 129 288 139 310 251 135 247 55 32 143 85 185 257 162 149 137 127 126 187
341 340 341 342 342 339 338 334 335 333 341 337 325 235 226 232 264 216 190 204 159 112 61 259 260 254 146 200 300 172 217 261 131 181 183 54 10 315 154 185 197 64 134 114 107 93 27
337 337 339 340 336 337 336 334 331 330 333 324 307 228 210 195 257 228 161 179 141 82 21 248 191 153 137 135 278 226 192 222 147 151 154 117 299 118 118 155 202 136 104 103 106 87 269
332 333 334 332 335 334 334 336 332 331 330 329 329 210 197 194 241 196 154 167 111 47 264 180 150 234 329 181 248 280 193 230 289 45 52 168 164 28 58 277 45 149 105 52 63 114 104
328 331 331 333 334 332 332 333 330 327 329 323 330 199 193 187 226 169 161 188 57 142 315 236 193 175 205 318 311 297 335 42 174 104 20 51 49 87 77 127 143 123 74 95 85 49 127
324 326 329 330 332 331 330 328 330 324 330 313 309 197 195 202 197 163 170 66 127 209 206 229 135 114 139 6 281 301 351 22 26 74 80 66 53 13 338 74 134 86 166 126 93 89 318
318 320 322 324 326 325 326 325 328 330 325 311 281 182 195 202 181 175 121 99 202 201 186 155 92 113 272 309 189 342 90 105 266 62 124 114 28 319 124 56 117 124 342 118 110 69 75
317 316 317 317 317 318 320 321 328 332 329 198 149 179 181 190 177 175 97 197 220 212 176 119 160 161 176 210 129 306 24 270 99 162 172 173 83 13 303 105 292 183 159 84 10 123 229
314 314 316 315 313 313 313 319 323 328 335 315 111 160 178 173 168 203 182 206 234 232 190 141 193 158 161 170 180 207 355 325 78 22 74 115 86 293 28 23 28 12 39 58 94 86 148
313 314 316 312 311 311 310 315 318 320 329 300 312 250 171 165 184 203 177 176 214 173 189 165 160 124 152 155 158 212 147 208 22 51 51 11 105 70 65 315 326 126 77 100 109 205 103
312 316 317 314 311 310 310 313 315 316 317 313 243 245 170 186 203 194 146 147 223 161 177 152 205 182 152 158 134 180 117 341 188 63 121 177 28 55 354 353 1 47 29 89 97 80 189
311 313 315 313 312 311 309 311 313 318 311 297 160 188 152 222 283 169 141 195 169 217 156 145 193 151 125 131 99 175 125 32 90 98 69 89 98 148 176 198 140 192 172 136 111 102 182
311 313 314 313 313 312 311 311 315 316 310 250 180 219 193 176 201 180 165 173 178 164 188 172 90 197 129 112 91 120 129 105 71 8 59 87 126 122 143 119 135 179 206 189 177 171 153
313 313 313 313 311 311 310 311 318 315 315 212 172 189 152 284 171 158 217 207 178 154 134 181 146 167 125 146 174 180 123 137 188 356 84 27 164 130 74 16 48 198 187 190 231 193 257
313 313 313 312 312 311 310 310 317 316 290 149 139 119 109 174 163 174 198 197 184 136 38 148 145 113 105 176 166 145 106 113 143 146 122 92 123 79 322 333 344 326 239 191 183 187 158
312 313 313 313 314 313 314 320 315 314 242 113 93 111 142 182 190 182 173 205 175 142 122 45 115 111 177 125 96 62 65 77 60 39 127 126 93 82 174 3 27 240 235 187 200 150 214
313 314 313 313 313 316 316 319 311 301 223 130 94 86 94 126 149 161 164 194 99 76 78 92 34 288 135 63 66 60 11 27 14 31 39 89 113 92 124 196 292 262 202 181 182 195 228
314 313 314 315 315 318 316 314 323 176 150 125 70 27 113 149 335 336 138 195 118 100 52 67 25 41 66 80 88 134 182 162 185 17 42 76 78 96 176 129 227 246 261 231 86 281 204
315 314 314 315 315 316 317 320 320 165 163 140 70 11 93 108 352 359 93 139 98 93 94 111 105 54 39 92 120 161 200 165 152 161 163 97 80 167 184 242 291 248 220 107 95 252 157
313 314 315 317 318 320 321 322 195 167 165 142 67 354 93 97 20 358 358 48 53 89 131 178 99 30 47 81 128 194 135 209 115 165 183 151 174 205 149 213 262 177 86 168 203 105 139
314 317 319 322 325 323 321 309 167 170 164 163 103 68 74 74 128 81 68 49 36 339 123 34 135 133 160 94 136 118 121 112 154 199 359 179 184 182 181 212 260 314 300 13 127 138 156